This demonstration page uses our WeatherBlox Daily Observations layout. Learn more.

Left ArrowRight Arrow

Hourly Observations for September 21, 2017

Temp ( °F °C ) Dew Point ( °F °C ) Humidity (%) Winds ( mph kmh ) Pressure ( in mb ) Visibility ( mi km ) Precip ( " mm )
12:54 am 00:54 Clear 61 16.1 52 11.1 72 72 N 5 7 29.86 1011 10 16.0934 0 0
1:54 am 01:54 Mostly Clear 61 16.1 53 11.7 75 75 N 6 9 29.86 1011 10 16.0934 0 0
2:54 am 02:54 Mostly Cloudy 61 16.1 54 12.2 78 78 N 6 9 29.85 1011 10 16.0934 0 0
3:54 am 03:54 Mostly Clear 63 17.2 54 12.2 73 73 ENE 3 6 29.82 1010 10 16.0934 0 0
4:54 am 04:54 Partly Cloudy 61 16.1 55 12.8 81 81 NE 5 7 29.81 1010 10 16.0934 0 0
5:54 am 05:54 Clear 59 15 55 12.8 87 87 NNE 5 7 29.81 1009 10 16.0934 0 0
6:54 am 06:54 Clear 61 16.1 56 13.3 84 84 NE 6 9 29.81 1010 10 16.0934 0 0
7:54 am 07:54 Mostly Cloudy 66 18.9 60 15.6 81 81 E 5 7 29.82 1010 10 16.0934 0 0
8:54 am 08:54 Partly Cloudy 71 21.7 64 17.8 79 79 ESE 6 9 29.81 1010 10 16.0934 0 0
9:54 am 09:54 Sunny 78 25.6 70 21.1 76 76 SSE 13 20 29.81 1009 9 14.48406 0 0
10:54 am 10:54 Sunny 84 28.9 71 21.7 65 65 S 14 22 29.79 1009 10 16.0934 0 0
11:54 am 11:54 Sunny 87 30.6 71 21.7 59 59 SSE 21 33 29.78 1008 10 16.0934 0 0
12:54 pm 12:54 Sunny 90 32.2 71 21.7 54 54 SSE 18 30 29.76 1008 10 16.0934 0 0
1:54 pm 13:54 Sunny 92 33.3 71 21.7 51 51 SSE 20 31 29.72 1007 10 16.0934 0 0
2:54 pm 14:54 Sunny 93 33.9 70 21.1 47 47 SSE 25 41 29.7 1006 10 16.0934 0 0
3:54 pm 15:54 Sunny 94 34.4 69 20.6 44 44 SSE 26 43 29.67 1005 10 16.0934 0 0
4:54 pm 16:54 Sunny 92 33.3 70 21.1 49 49 S 23 37 29.67 1005 10 16.0934 0 0
5:54 pm 17:54 Sunny 92 33.3 70 21.1 49 49 SSE 18 30 29.67 1005 10 16.0934 0 0
6:54 pm 18:54 Sunny 89 31.7 70 21.1 53 53 SSE 18 30 29.68 1005 10 16.0934 0 0
7:54 pm 19:54 Clear 87 30.6 72 22.2 61 61 SSE 20 31 29.7 1006 10 16.0934 0 0
8:54 pm 20:54 Clear 86 30 73 22.8 65 65 SSE 21 33 29.71 1006 10 16.0934 0 0
9:54 pm 21:54 Clear 85 29.4 73 22.8 68 68 SSE 20 31 29.72 1006 10 16.0934 0 0
10:54 pm 22:54 Clear 83 28.3 72 22.2 70 70 S 18 30 29.73 1007 10 16.0934 0 0
11:54 pm 23:54 Clear 83 28.3 71 21.7 67 67 S 20 31 29.74 1007 10 16.0934 0 0

Powered by AerisWeather